STARLINK-35705

Last updated on Fri Dec 19 2025 00:02:09 GMT+0000 (Coordinated Universal Time)

1 67039U 25294K 25351.83335648 -.01334562 53065-3 -32117-2 0 9997 2 67039 43.0000 151.2852 0001805 279.6905 135.2574 15.95587537 2127
UTC large
Height (km)
Speed (km/s)
/
Latitude / Longitude
Inclination (degrees)
Orbital Period (minutes)
Azimuth
Elevation
Range (km)
Doppler Factor

Next 0 passes for location: London (51.5072 / 0.1276)

Sorry there are no passes over London.